Location: Arbon
(43.0005°N, 0.7472°E)
Time: 02:19:02
(UTC+00:00)

MSX - Pass Details

Date: 07 August 2020
Orbit: 895 x 905 km, 98.8° (Epoch: 25 September)

Event Time Altitude Azimuth Distance (km) Brightness Sun altitude
Rises 03:06:38 0° 17° (NNE) 3,530 8.0 -17.2°
Reaches altitude 10° 03:09:06 10° 22° (NNE) 2,587 7.2 -16.9°
Maximum altitude 03:14:47 58° 101° (E) 1,047 4.4 -16.2°
Drops below altitude 10° 03:20:26 10° 180° (S) 2,575 5.8 -15.4°
Enters shadow 03:20:47 - 181° (S) 2,712 6.0 -15.3°
